Location: Saint-Hippolyte
(43.6394°N, 4.7559°E)
Time: 16:04:51
(UTC+00:00)

SKYMED 2 - Pass Details

Date: 24 October 2020
Orbit: 621 x 623 km, 97.9° (Epoch: 24 November)

Event Time Altitude Azimuth Distance (km) Brightness Sun altitude
Rises 17:56:26 0° 11° (N) 2,913 6.9 -13.9°
Reaches altitude 10° 17:58:38 10° 10° (N) 2,002 6.0 -14.3°
Maximum altitude 18:02:59 78° 285° (WNW) 641 3.7 -15.1°
Drops below altitude 10° 18:07:18 10° 199° (SSW) 1,985 6.4 -15.9°
Sets 18:09:28 0° 198° (SSW) 2,886 7.3 -16.3°
